Location: City of Moscow
(46.7306°N, 116.9989°W)
Time: 14:27:55
(UTC+00:00)

Cosmos 1626 Rocket - Pass Details

Date: 20 March 2026
Orbit: 595 x 624 km, 82.5° (Epoch: 18 April)

Event Time Altitude Azimuth Distance (km) Brightness Sun altitude
Rises 10:47:44 0° 3° (N) 2,891 7.5 -30.1°
Reaches altitude 10° 10:50:27 10° 20° (NNE) 1,975 6.8 -29.7°
Maximum altitude 10:53:46 21° 69° (ENE) 1,389 6.0 -29.3°
Drops below altitude 10° 10:57:02 10° 119° (ESE) 1,950 6.4 -28.8°
Sets 10:59:42 0° 135° (SE) 2,842 7.1 -28.5°
